Flag for U.S.A. Weather past 2 weeks in Kennebunk, Maine, U.S.A.

Now
50 °F

Clear.


Feels Like: 49 °F
Forecast: 53 / 81 °F
Wind: 3 mph from Southwest

Location: Sanford Municipal

Current Time: Aug 29, 2015 at 3:54:23 AM

Latest Report: Aug 29, 2015 at 3:15 AM


Visibility: 10 mi

Pressure: 30.15 "Hg

Humidity: 82%

Dew point: 45 °F

Location of KennebunkLocation

Historic Weather in Kennebunk — Graph

°F

Kennebunk temperature yesterday

Maximum temperature yesterday: 79 °F (at 1:15 PM)
Minimum temperature yesterday: 48 °F (at 5:35 AM)
Average temperature yesterday: 65 °F

Past Weeks' High & Low Weather Summary

 TemperatureHumidityPressure
High91 °F (Aug 17, 1:55 PM)94% (Aug 20, 7:15 AM)30.16 "Hg (Aug 20, 7:15 AM)
Low48 °F (Aug 28, 5:35 AM)34% (Aug 17, 3:15 PM)29.87 "Hg (Aug 26, 3:35 AM)
Average72 °F70%30.03 "Hg
* Reported Aug 14 2:15 AM — Aug 29 2:55 AM, Kennebunk, Weather by CustomWeather, © 2015

Note: Actual official high and low records may vary slightly from our data, if they occured in-between our weather recording intervals... More about our weather records

Advertising

Kennebunk weather history for previous 24 hours

 ConditionsComfort  
Time TempWeatherWind HumidityBarometerVisibility
2:55 AM
Sat, Aug 29
50 °FClear.No wind82%30.15 "Hg10 mi
1:55 AM50 °FClear.No wind88%30.16 "Hg10 mi
1:35 AM52 °FClear.No wind82%30.16 "Hg10 mi
1:15 AM52 °FClear.No wind82%30.16 "Hg10 mi
12:55 AM52 °FClear.No wind88%30.16 "Hg10 mi
11:55 PM
Fri, Aug 28
54 °FClear.No wind82%30.16 "Hg10 mi
11:15 PM55 °FClear.No wind82%30.16 "Hg10 mi
10:55 PM55 °FClear.No wind82%30.16 "Hg10 mi
10:35 PM57 °FClear.3 mph82%30.15 "Hg10 mi
10:15 PM55 °FClear.No wind88%30.15 "Hg10 mi
9:55 PM57 °FClear.No wind82%30.15 "Hg10 mi
9:35 PM59 °FClear.No wind77%30.15 "Hg10 mi
9:15 PM59 °FClear.No wind82%30.15 "Hg10 mi
8:55 PM61 °FClear.3 mph77%30.15 "Hg10 mi
8:35 PM63 °FClear.No wind77%30.14 "Hg10 mi
8:15 PM64 °FSunny.3 mph73%30.13 "Hg10 mi
7:55 PM64 °FSunny.5 mph73%30.13 "Hg10 mi
7:35 PM66 °FSunny.3 mph64%30.12 "Hg10 mi
7:15 PM68 °FSunny.3 mph60%30.11 "Hg10 mi
6:55 PM70 °FSunny.5 mph60%30.11 "Hg10 mi
6:35 PM73 °FSunny.No wind50%30.10 "Hg10 mi
6:15 PM75 °FSunny.6 mph47%30.10 "Hg10 mi
5:35 PM77 °FSunny.7 mph42%30.10 "Hg10 mi
5:15 PM77 °FPassing clouds.8 mph42%30.10 "Hg10 mi
4:55 PM77 °FSunny.8 mph42%30.10 "Hg10 mi
4:35 PM79 °FPassing clouds.8 mph39%30.10 "Hg10 mi
4:15 PM79 °FPassing clouds.9 mph39%30.10 "Hg10 mi
3:55 PM77 °FSunny.7 mph42%30.10 "Hg10 mi
3:35 PM79 °FPassing clouds.12 mph42%30.11 "Hg10 mi
3:15 PM79 °FScattered clouds.12 mph42%30.11 "Hg10 mi
2:55 PM79 °FScattered clouds.8 mph39%30.11 "Hg10 mi
2:35 PM79 °FPartly sunny.9 mph42%30.12 "Hg10 mi
2:15 PM79 °FOvercast.10 mph42%30.12 "Hg10 mi
1:55 PM77 °FPartly sunny.7 mph44%30.13 "Hg10 mi
1:35 PM79 °FPartly sunny.12 mph42%30.13 "Hg10 mi
1:15 PM79 °FScattered clouds.6 mph42%30.13 "Hg10 mi
12:55 PM77 °FScattered clouds.8 mph44%30.13 "Hg10 mi
12:35 PM77 °FBroken clouds.12 mph44%30.14 "Hg10 mi
12:15 PM77 °FScattered clouds.9 mph44%30.14 "Hg10 mi
11:55 AM75 °FPassing clouds.9 mph47%30.14 "Hg10 mi
11:35 AM75 °FPassing clouds.9 mph47%30.15 "Hg10 mi
11:15 AM75 °FPassing clouds.12 mph47%30.15 "Hg10 mi
10:55 AM75 °FScattered clouds.8 mph47%30.15 "Hg10 mi
10:35 AM73 °FSunny.3 mph50%30.15 "Hg10 mi
10:15 AM72 °FSunny.3 mph53%30.15 "Hg10 mi
9:55 AM72 °FSunny.5 mph53%30.15 "Hg10 mi
9:35 AM72 °FSunny.5 mph53%30.15 "Hg10 mi
9:15 AM68 °FSunny.3 mph60%30.15 "Hg10 mi
8:55 AM66 °FMild.6 mph68%30.15 "Hg10 mi
8:35 AM66 °FSunny.3 mph68%30.15 "Hg10 mi
8:15 AM66 °FSunny.No wind68%30.14 "Hg10 mi
7:55 AM64 °FSunny.No wind73%30.14 "Hg10 mi
7:35 AM61 °FSunny.No wind77%30.14 "Hg10 mi
7:15 AM55 °FSunny.No wind82%30.13 "Hg10 mi
6:55 AM54 °FClear.No wind82%30.12 "Hg10 mi
6:35 AM50 °FClear.No wind82%30.11 "Hg10 mi
6:15 AM48 °FClear.No wind87%30.11 "Hg10 mi
5:55 AM48 °FClear.No wind87%30.10 "Hg5 mi
5:35 AM48 °FClear.No wind87%30.10 "Hg10 mi
5:15 AM50 °FClear.No wind82%30.10 "Hg10 mi
4:55 AM50 °FClear.No wind88%30.09 "Hg7 mi
4:35 AM52 °FClear.No wind82%30.09 "Hg10 mi
4:15 AM52 °FClear.No wind82%30.09 "Hg10 mi
3:55 AM52 °FClear.No wind82%30.09 "Hg10 mi
3:35 AM52 °FClear.No wind82%30.08 "Hg10 mi
3:15 AM52 °FClear.No wind82%30.08 "Hg10 mi
Weather by CustomWeather, © 2015

See weather overviewHow to use our weather pages